Wetterdaten: Freitag, 22.12.2017
Datum Zeit Temp. A. Aussen2m Boden Feuchte A. Feuchte 2 Luftdruck Regen Wind Richtung Richtung Sonnenschein
22.12.2017 00:00 8,6 C 8,6 C 7,2 C 99 % 98 % 1031,9 hPa 0,0 l/m 3,6 km/h (1 Bft) SO 125 0 min
22.12.2017 00:05 8,6 C 8,6 C 7,2 C 99 % 98 % 1031,9 hPa 0,0 l/m 1,2 km/h (1 Bft) S-SO 165 0 min
22.12.2017 00:10 8,6 C 8,6 C 7,2 C 99 % 98 % 1031,9 hPa 0,0 l/m 1,8 km/h (1 Bft) SO 145 0 min
22.12.2017 00:15 8,6 C 8,6 C 7,2 C 99 % 98 % 1031,9 hPa 0,0 l/m 3,0 km/h (1 Bft) S-SW 200 0 min
22.12.2017 00:20 8,6 C 8,6 C 7,2 C 99 % 98 % 1031,9 hPa 0,0 l/m 3,0 km/h (1 Bft) S-SO 165 0 min
22.12.2017 00:25 8,6 C 8,6 C 7,2 C 99 % 98 % 1031,9 hPa 0,0 l/m 3,6 km/h (1 Bft) S-SO 150 0 min
22.12.2017 00:30 8,6 C 8,6 C 7,2 C 99 % 98 % 1031,9 hPa 0,0 l/m 4,8 km/h (1 Bft) S-SO 155 0 min
22.12.2017 00:35 8,6 C 8,6 C 7,2 C 99 % 98 % 1031,9 hPa 0,0 l/m 3,6 km/h (1 Bft) S 170 0 min
22.12.2017 00:40 8,6 C 8,6 C 7,2 C 99 % 98 % 1031,9 hPa 0,0 l/m 4,8 km/h (1 Bft) S-SO 150 0 min
22.12.2017 00:45 8,6 C 8,6 C 7,2 C 99 % 98 % 1031,9 hPa 0,0 l/m 4,8 km/h (1 Bft) S-SO 155 0 min
22.12.2017 00:50 8,6 C 8,6 C 7,2 C 99 % 98 % 1031,9 hPa 0,0 l/m 3,0 km/h (1 Bft) S-SO 160 0 min
22.12.2017 00:55 8,5 C 8,6 C 7,2 C 99 % 98 % 1031,9 hPa 0,0 l/m 4,8 km/h (1 Bft) S-SO 150 0 min
22.12.2017 01:00 8,5 C 8,6 C 7,2 C 99 % 98 % 1031,9 hPa 0,0 l/m 6,1 km/h (2 Bft) S-SO 155 0 min
22.12.2017 01:05 8,5 C 8,6 C 7,2 C 99 % 98 % 1030,9 hPa 0,0 l/m 3,0 km/h (1 Bft) S-SO 160 0 min
22.12.2017 01:10 8,5 C 8,6 C 7,3 C 99 % 98 % 1030,9 hPa 0,0 l/m 2,4 km/h (1 Bft) S-SO 150 0 min
22.12.2017 01:15 8,5 C 8,6 C 7,3 C 99 % 98 % 1030,9 hPa 0,0 l/m 3,0 km/h (1 Bft) O-SO 115 0 min
22.12.2017 01:20 8,5 C 8,5 C 7,3 C 99 % 98 % 1030,9 hPa 0,0 l/m 2,4 km/h (1 Bft) S-SO 160 0 min
22.12.2017 01:25 8,5 C 8,5 C 7,3 C 99 % 98 % 1030,9 hPa 0,3 l/m 2,4 km/h (1 Bft) S 170 0 min
22.12.2017 01:30 8,5 C 8,5 C 7,3 C 99 % 98 % 1030,9 hPa 0,0 l/m 3,6 km/h (1 Bft) S-SO 160 0 min
22.12.2017 01:35 8,5 C 8,5 C 7,3 C 99 % 98 % 1031,9 hPa 0,0 l/m 4,8 km/h (1 Bft) S-SO 150 0 min
22.12.2017 01:40 8,5 C 8,5 C 7,3 C 99 % 98 % 1031,9 hPa 0,0 l/m 3,6 km/h (1 Bft) SO 140 0 min
22.12.2017 01:45 8,5 C 8,5 C 7,3 C 99 % 98 % 1031,9 hPa 0,0 l/m 3,0 km/h (1 Bft) S-SO 150 0 min
22.12.2017 01:50 8,4 C 8,5 C 7,3 C 99 % 98 % 1030,9 hPa 0,0 l/m 3,6 km/h (1 Bft) S 190 0 min
22.12.2017 01:55 8,5 C 8,5 C 7,3 C 99 % 98 % 1030,9 hPa 0,0 l/m 3,0 km/h (1 Bft) SO 145 0 min
22.12.2017 02:00 8,5 C 8,5 C 7,3 C 99 % 98 % 1030,9 hPa 0,0 l/m 3,6 km/h (1 Bft) S-SO 150 0 min
22.12.2017 02:05 8,5 C 8,5 C 7,3 C 99 % 98 % 1030,9 hPa 0,0 l/m 4,8 km/h (1 Bft) S-SO 155 0 min
22.12.2017 02:10 8,5 C 8,5 C 7,3 C 99 % 98 % 1030,9 hPa 0,0 l/m 3,6 km/h (1 Bft) SO 145 0 min
22.12.2017 02:15 8,5 C 8,6 C 7,3 C 99 % 98 % 1030,9 hPa 0,0 l/m 3,6 km/h (1 Bft) SO 145 0 min
22.12.2017 02:20 8,5 C 8,5 C 7,3 C 99 % 98 % 1030,9 hPa 0,0 l/m 4,2 km/h (1 Bft) S-SO 150 0 min
22.12.2017 02:25 8,5 C 8,5 C 7,3 C 99 % 98 % 1030,9 hPa 0,0 l/m 4,2 km/h (1 Bft) SO 130 0 min
22.12.2017 02:30 8,5 C 8,5 C 7,3 C 99 % 98 % 1030,9 hPa 0,0 l/m 4,2 km/h (1 Bft) SO 140 0 min
22.12.2017 02:35 8,5 C 8,5 C 7,3 C 99 % 98 % 1030,9 hPa 0,0 l/m 3,6 km/h (1 Bft) S-SO 150 0 min
22.12.2017 02:40 8,5 C 8,5 C 7,3 C 99 % 98 % 1030,9 hPa 0,0 l/m 3,0 km/h (1 Bft) S 185 0 min
22.12.2017 02:45 8,5 C 8,5 C 7,3 C 99 % 98 % 1030,9 hPa 0,0 l/m 3,0 km/h (1 Bft) S 185 0 min
22.12.2017 02:50 8,5 C 8,5 C 7,3 C 99 % 98 % 1029,9 hPa 0,0 l/m 3,6 km/h (1 Bft) S-SO 155 0 min
22.12.2017 02:55 8,5 C 8,5 C 7,3 C 99 % 98 % 1029,9 hPa 0,0 l/m 3,0 km/h (1 Bft) S 170 0 min
22.12.2017 03:00 8,5 C 8,5 C 7,3 C 99 % 98 % 1029,9 hPa 0,0 l/m 3,6 km/h (1 Bft) S-SO 155 0 min
22.12.2017 03:05 8,5 C 8,5 C 7,3 C 99 % 98 % 1029,9 hPa 0,0 l/m 3,6 km/h (1 Bft) S-SO 150 0 min
22.12.2017 03:10 8,6 C 8,6 C 7,3 C 99 % 98 % 1029,9 hPa 0,0 l/m 4,2 km/h (1 Bft) SO 145 0 min
22.12.2017 03:15 8,6 C 8,6 C 7,3 C 99 % 98 % 1029,9 hPa 0,0 l/m 6,1 km/h (2 Bft) SO 145 0 min
22.12.2017 03:20 8,6 C 8,6 C 7,3 C 99 % 98 % 1030,9 hPa 0,0 l/m 6,1 km/h (2 Bft) SO 130 0 min
22.12.2017 03:25 8,6 C 8,6 C 7,3 C 99 % 98 % 1030,9 hPa 0,0 l/m 4,2 km/h (1 Bft) S 190 0 min
22.12.2017 03:30 8,6 C 8,6 C 7,3 C 99 % 98 % 1030,9 hPa 0,0 l/m 4,8 km/h (1 Bft) S-SO 155 0 min
22.12.2017 03:35 8,6 C 8,6 C 7,3 C 99 % 98 % 1029,9 hPa 0,0 l/m 3,6 km/h (1 Bft) SO 145 0 min
22.12.2017 03:40 8,6 C 8,6 C 7,3 C 99 % 98 % 1029,9 hPa 0,0 l/m 1,2 km/h (1 Bft) S 175 0 min
22.12.2017 03:45 8,6 C 8,6 C 7,3 C 99 % 98 % 1029,9 hPa 0,0 l/m 4,2 km/h (1 Bft) S-SO 150 0 min
22.12.2017 03:50 8,6 C 8,6 C 7,3 C 99 % 98 % 1029,9 hPa 0,0 l/m 0,6 km/h (0 Bft) S 190 0 min
22.12.2017 03:55 8,6 C 8,6 C 7,3 C 99 % 98 % 1029,9 hPa 0,0 l/m 3,6 km/h (1 Bft) S-SO 160 0 min
22.12.2017 04:00 8,6 C 8,7 C 7,3 C 99 % 98 % 1029,9 hPa 0,0 l/m 4,2 km/h (1 Bft) S 170 0 min
22.12.2017 04:05 8,6 C 8,7 C 7,3 C 99 % 98 % 1029,9 hPa 0,0 l/m 3,6 km/h (1 Bft) S-SW 205 0 min
22.12.2017 04:10 8,6 C 8,7 C 7,3 C 99 % 98 % 1029,9 hPa 0,0 l/m 3,6 km/h (1 Bft) SO 145 0 min
22.12.2017 04:15 8,6 C 8,7 C 7,3 C 99 % 98 % 1029,9 hPa 0,0 l/m 5,4 km/h (2 Bft) S-SO 155 0 min
22.12.2017 04:20 8,6 C 8,7 C 7,5 C 99 % 98 % 1029,9 hPa 0,0 l/m 5,4 km/h (2 Bft) S 180 0 min
22.12.2017 04:25 8,6 C 8,7 C 7,5 C 99 % 98 % 1029,9 hPa 0,0 l/m 5,4 km/h (2 Bft) S-SO 155 0 min
22.12.2017 04:30 8,6 C 8,7 C 7,5 C 99 % 98 % 1029,9 hPa 0,0 l/m 3,6 km/h (1 Bft) S-SO 150 0 min
22.12.2017 04:35 8,6 C 8,7 C 7,5 C 99 % 98 % 1029,9 hPa 0,3 l/m 4,8 km/h (1 Bft) S-SO 160 0 min
22.12.2017 04:40 8,6 C 8,7 C 7,5 C 99 % 98 % 1029,9 hPa 0,0 l/m 2,4 km/h (1 Bft) S-SO 165 0 min
22.12.2017 04:45 8,6 C 8,7 C 7,5 C 99 % 98 % 1029,9 hPa 0,0 l/m 3,6 km/h (1 Bft) S 175 0 min
22.12.2017 04:50 8,6 C 8,6 C 7,5 C 99 % 98 % 1029,9 hPa 0,0 l/m 2,4 km/h (1 Bft) S 190 0 min
22.12.2017 04:55 8,6 C 8,7 C 7,5 C 99 % 98 % 1029,9 hPa 0,0 l/m 3,6 km/h (1 Bft) S-SO 155 0 min
22.12.2017 05:00 8,6 C 8,7 C 7,5 C 99 % 98 % 1029,9 hPa 0,0 l/m 3,6 km/h (1 Bft) S 170 0 min
22.12.2017 05:05 8,6 C 8,7 C 7,5 C 99 % 98 % 1029,9 hPa 0,0 l/m 2,4 km/h (1 Bft) S-SO 165 0 min
22.12.2017 05:10 8,6 C 8,6 C 7,5 C 99 % 98 % 1029,9 hPa 0,0 l/m 2,4 km/h (1 Bft) S 185 0 min
22.12.2017 05:15 8,5 C 8,6 C 7,5 C 99 % 98 % 1029,9 hPa 0,0 l/m 1,2 km/h (1 Bft) S 175 0 min
22.12.2017 05:20 8,5 C 8,6 C 7,5 C 99 % 98 % 1029,9 hPa 0,0 l/m 1,8 km/h (1 Bft) S-SO 150 0 min
22.12.2017 05:25 8,5 C 8,6 C 7,5 C 99 % 98 % 1029,9 hPa 0,3 l/m 1,2 km/h (1 Bft) S 180 0 min
22.12.2017 05:30 8,5 C 8,6 C 7,5 C 99 % 98 % 1029,9 hPa 0,0 l/m 3,6 km/h (1 Bft) S-SO 165 0 min
22.12.2017 05:35 8,5 C 8,6 C 7,5 C 99 % 98 % 1028,9 hPa 0,0 l/m 2,4 km/h (1 Bft) SO 130 0 min
22.12.2017 05:40 8,5 C 8,5 C 7,5 C 99 % 98 % 1028,9 hPa 0,0 l/m 2,4 km/h (1 Bft) SO 145 0 min
22.12.2017 05:45 8,5 C 8,6 C 7,5 C 99 % 98 % 1028,9 hPa 0,0 l/m 2,4 km/h (1 Bft) S 180 0 min
22.12.2017 05:50 8,6 C 8,6 C 7,5 C 99 % 98 % 1029,9 hPa 0,3 l/m 2,4 km/h (1 Bft) S-SO 160 0 min
22.12.2017 05:55 8,6 C 8,6 C 7,5 C 99 % 98 % 1029,9 hPa 0,3 l/m 3,0 km/h (1 Bft) SO 135 0 min
22.12.2017 06:00 8,6 C 8,6 C 7,5 C 99 % 98 % 1029,9 hPa 0,0 l/m 3,6 km/h (1 Bft) SO 140 0 min
22.12.2017 06:05 8,6 C 8,6 C 7,5 C 99 % 98 % 1029,9 hPa 0,0 l/m 2,4 km/h (1 Bft) S-SO 150 0 min
22.12.2017 06:10 8,6 C 8,6 C 7,5 C 99 % 98 % 1029,9 hPa 0,0 l/m 1,8 km/h (1 Bft) S-SO 155 0 min
22.12.2017 06:15 8,6 C 8,6 C 7,5 C 99 % 98 % 1029,9 hPa 0,0 l/m 2,4 km/h (1 Bft) SO 135 0 min
22.12.2017 06:20 8,6 C 8,6 C 7,5 C 99 % 98 % 1029,9 hPa 0,3 l/m 1,2 km/h (1 Bft) SO 135 0 min
22.12.2017 06:25 8,5 C 8,6 C 7,5 C 99 % 98 % 1029,9 hPa 0,0 l/m 1,8 km/h (1 Bft) SO 140 0 min
22.12.2017 06:30 8,6 C 8,6 C 7,5 C 99 % 98 % 1029,9 hPa 0,0 l/m 1,2 km/h (1 Bft) S-SO 150 0 min
22.12.2017 06:35 8,5 C 8,6 C 7,5 C 99 % 98 % 1029,9 hPa 0,0 l/m 2,4 km/h (1 Bft) O-SO 120 0 min
22.12.2017 06:40 8,5 C 8,6 C 7,5 C 99 % 98 % 1029,9 hPa 0,3 l/m 4,8 km/h (1 Bft) S-SO 155 0 min
22.12.2017 06:45 8,6 C 8,6 C 7,5 C 99 % 98 % 1029,9 hPa 0,0 l/m 4,2 km/h (1 Bft) SO 125 0 min
22.12.2017 06:50 8,6 C 8,6 C 7,5 C 99 % 98 % 1029,9 hPa 0,0 l/m 4,2 km/h (1 Bft) S-SO 150 0 min
22.12.2017 06:55 8,6 C 8,6 C 7,5 C 99 % 98 % 1029,9 hPa 0,3 l/m 4,2 km/h (1 Bft) S-SO 150 0 min
22.12.2017 07:00 8,6 C 8,6 C 7,5 C 99 % 98 % 1029,9 hPa 0,0 l/m 4,8 km/h (1 Bft) S-SO 150 0 min
22.12.2017 07:05 8,6 C 8,6 C 7,5 C 99 % 98 % 1029,9 hPa 0,0 l/m 3,6 km/h (1 Bft) S 190 0 min
22.12.2017 07:10 8,6 C 8,7 C 7,5 C 99 % 98 % 1029,9 hPa 0,0 l/m 3,6 km/h (1 Bft) SO 135 0 min
22.12.2017 07:15 8,6 C 8,7 C 7,5 C 99 % 98 % 1029,9 hPa 0,3 l/m 3,6 km/h (1 Bft) SO 145 0 min
22.12.2017 07:20 8,6 C 8,7 C 7,5 C 99 % 98 % 1029,9 hPa 0,0 l/m 4,8 km/h (1 Bft) SO 145 0 min
22.12.2017 07:25 8,6 C 8,7 C 7,5 C 99 % 98 % 1029,9 hPa 0,0 l/m 4,8 km/h (1 Bft) SO 140 0 min
22.12.2017 07:30 8,6 C 8,7 C 7,5 C 99 % 98 % 1029,9 hPa 0,0 l/m 4,2 km/h (1 Bft) SO 140 0 min
22.12.2017 07:35 8,6 C 8,7 C 7,5 C 99 % 98 % 1029,9 hPa 0,0 l/m 4,2 km/h (1 Bft) SO 140 0 min
22.12.2017 07:40 8,7 C 8,7 C 7,5 C 99 % 98 % 1029,9 hPa 0,3 l/m 4,2 km/h (1 Bft) S-SO 150 0 min
22.12.2017 07:45 8,7 C 8,7 C 7,5 C 99 % 98 % 1029,9 hPa 0,0 l/m 3,0 km/h (1 Bft) S-SO 160 0 min
22.12.2017 07:50 8,7 C 8,7 C 7,5 C 99 % 98 % 1029,9 hPa 0,0 l/m 3,6 km/h (1 Bft) S 180 0 min
22.12.2017 07:55 8,6 C 8,7 C 7,5 C 99 % 98 % 1029,9 hPa 0,0 l/m 3,6 km/h (1 Bft) SO 135 0 min
22.12.2017 08:00 8,6 C 8,7 C 7,5 C 99 % 98 % 1029,9 hPa 0,3 l/m 2,4 km/h (1 Bft) S-SW 200 0 min
22.12.2017 08:05 8,6 C 8,7 C 7,5 C 99 % 98 % 1029,9 hPa 0,0 l/m 0,6 km/h (0 Bft) S-SW 200 0 min
22.12.2017 08:10 8,6 C 8,7 C 7,5 C 99 % 98 % 1029,9 hPa 0,0 l/m 0,0 km/h (0 Bft) SW 215 0 min
22.12.2017 08:15 8,6 C 8,7 C 7,5 C 99 % 98 % 1029,9 hPa 0,0 l/m 0,0 km/h (0 Bft) W-NW 295 0 min
22.12.2017 08:20 8,6 C 8,7 C 7,5 C 99 % 98 % 1029,9 hPa 0,0 l/m 0,0 km/h (0 Bft) SW 220 0 min
22.12.2017 08:25 8,7 C 8,7 C 7,5 C 99 % 98 % 1029,9 hPa 0,0 l/m 0,0 km/h (0 Bft) SW 235 0 min
22.12.2017 08:30 8,6 C 8,6 C 7,5 C 99 % 98 % 1029,9 hPa 0,3 l/m 1,2 km/h (1 Bft) W-SW 240 0 min
22.12.2017 08:35 8,6 C 8,7 C 7,5 C 99 % 98 % 1029,9 hPa 0,0 l/m 2,4 km/h (1 Bft) W-NW 300 0 min
22.12.2017 08:40 8,6 C 8,6 C 7,5 C 99 % 98 % 1029,9 hPa 0,0 l/m 0,0 km/h (0 Bft) NW 325 0 min
22.12.2017 08:45 8,6 C 8,6 C 7,5 C 99 % 98 % 1029,9 hPa 0,0 l/m 0,0 km/h (0 Bft) W-SW 255 0 min
22.12.2017 08:50 8,6 C 8,6 C 7,5 C 99 % 98 % 1029,9 hPa 0,0 l/m 0,6 km/h (0 Bft) SW 235 0 min
22.12.2017 08:55 8,6 C 8,6 C 7,5 C 99 % 98 % 1029,9 hPa 0,0 l/m 0,6 km/h (0 Bft) W-SW 240 0 min
22.12.2017 08:57 8,7 C 8,6 C 7,5 C 99 % 98 % 1029,9 hPa 0,0 l/m 0,6 km/h (0 Bft) W-SW 240 0 min
22.12.2017 09:02 8,7 C 8,7 C 7,5 C 99 % 98 % 1029,9 hPa 0,0 l/m 0,6 km/h (0 Bft) SW 215 0 min
22.12.2017 09:03 8,7 C 8,7 C 7,5 C 99 % 98 % 1029,9 hPa 0,0 l/m 1,2 km/h (1 Bft) SW 235 0 min
22.12.2017 09:05 8,7 C 8,7 C 7,5 C 99 % 98 % 1029,9 hPa 0,0 l/m 1,2 km/h (1 Bft) SW 235 0 min
22.12.2017 09:10 8,7 C 8,7 C 7,5 C 99 % 98 % 1029,9 hPa 0,0 l/m 0,6 km/h (0 Bft) W 270 0 min
22.12.2017 09:15 8,6 C 8,7 C 7,5 C 99 % 98 % 1029,9 hPa 0,0 l/m 1,2 km/h (1 Bft) W-SW 250 0 min
22.12.2017 09:20 8,7 C 8,7 C 7,5 C 99 % 98 % 1030,9 hPa 0,0 l/m 0,6 km/h (0 Bft) NW 320 0 min
22.12.2017 09:25 8,7 C 8,8 C 7,5 C 99 % 98 % 1030,9 hPa 0,0 l/m 1,8 km/h (1 Bft) SW 230 0 min
22.12.2017 09:30 8,8 C 8,8 C 7,5 C 99 % 98 % 1030,9 hPa 0,0 l/m 1,8 km/h (1 Bft) NW 315 0 min
22.12.2017 09:35 8,8 C 8,8 C 7,5 C 99 % 98 % 1029,9 hPa 0,3 l/m 1,2 km/h (1 Bft) W 265 0 min
22.12.2017 09:40 8,9 C 8,9 C 7,5 C 99 % 98 % 1029,9 hPa 0,0 l/m 2,4 km/h (1 Bft) W-NW 290 0 min
22.12.2017 09:45 8,9 C 8,9 C 7,5 C 99 % 98 % 1029,9 hPa 0,0 l/m 4,2 km/h (1 Bft) W-SW 245 0 min
22.12.2017 09:50 9,0 C 9,0 C 7,5 C 99 % 98 % 1030,9 hPa 0,0 l/m 4,2 km/h (1 Bft) W-NW 285 0 min
22.12.2017 09:55 9,0 C 9,1 C 7,5 C 99 % 98 % 1030,9 hPa 0,0 l/m 5,4 km/h (2 Bft) W 275 0 min
22.12.2017 10:00 9,0 C 9,1 C 7,7 C 99 % 98 % 1030,9 hPa 0,0 l/m 5,4 km/h (2 Bft) W-NW 300 0 min
22.12.2017 10:05 9,1 C 9,1 C 7,7 C 99 % 98 % 1029,9 hPa 0,0 l/m 4,8 km/h (1 Bft) W-NW 290 0 min
22.12.2017 10:10 9,1 C 9,1 C 7,7 C 99 % 98 % 1029,9 hPa 0,0 l/m 4,8 km/h (1 Bft) NW 305 0 min
22.12.2017 10:15 9,1 C 9,2 C 7,7 C 99 % 98 % 1029,9 hPa 0,0 l/m 7,3 km/h (2 Bft) W-NW 290 0 min
22.12.2017 10:20 9,1 C 9,2 C 7,7 C 99 % 98 % 1031,9 hPa 0,0 l/m 6,1 km/h (2 Bft) W 265 0 min
22.12.2017 10:25 9,1 C 9,2 C 7,7 C 99 % 98 % 1031,9 hPa 0,0 l/m 8,5 km/h (2 Bft) NW 320 0 min
22.12.2017 10:30 9,1 C 9,2 C 7,7 C 99 % 98 % 1031,9 hPa 0,0 l/m 8,5 km/h (2 Bft) W 270 0 min
22.12.2017 10:35 9,1 C 9,2 C 7,7 C 99 % 98 % 1030,9 hPa 0,0 l/m 9,1 km/h (2 Bft) W 280 0 min
22.12.2017 10:40 9,2 C 9,3 C 7,9 C 99 % 98 % 1030,9 hPa 0,0 l/m 7,3 km/h (2 Bft) W-SW 245 0 min
22.12.2017 10:45 9,2 C 9,3 C 7,9 C 99 % 98 % 1030,9 hPa 0,3 l/m 7,9 km/h (2 Bft) NW 305 0 min
22.12.2017 10:50 9,2 C 9,3 C 7,9 C 99 % 98 % 1030,9 hPa 0,0 l/m 7,9 km/h (2 Bft) W 280 0 min
22.12.2017 10:55 9,2 C 9,3 C 7,9 C 99 % 98 % 1030,9 hPa 0,0 l/m 8,5 km/h (2 Bft) W-NW 285 0 min
22.12.2017 11:00 9,1 C 9,3 C 7,9 C 99 % 98 % 1030,9 hPa 0,0 l/m 6,7 km/h (2 Bft) W-NW 285 0 min
22.12.2017 11:05 9,1 C 9,3 C 7,9 C 99 % 98 % 1030,9 hPa 0,0 l/m 4,8 km/h (1 Bft) NW 325 0 min
22.12.2017 11:10 9,1 C 9,3 C 7,9 C 99 % 98 % 1030,9 hPa 0,0 l/m 4,8 km/h (1 Bft) NW 315 0 min
22.12.2017 11:15 9,1 C 9,3 C 7,9 C 99 % 98 % 1030,9 hPa 0,0 l/m 3,6 km/h (1 Bft) NW 310 0 min
22.12.2017 11:20 9,1 C 9,3 C 7,9 C 99 % 98 % 1031,9 hPa 0,0 l/m 3,6 km/h (1 Bft) NW 310 0 min
22.12.2017 11:25 9,1 C 9,3 C 7,9 C 99 % 98 % 1031,9 hPa 0,3 l/m 3,0 km/h (1 Bft) NW 310 0 min
22.12.2017 11:30 9,1 C 9,3 C 7,9 C 99 % 98 % 1031,9 hPa 0,0 l/m 2,4 km/h (1 Bft) W-NW 285 0 min
22.12.2017 11:35 9,1 C 9,3 C 7,9 C 99 % 98 % 1030,9 hPa 0,0 l/m 0,6 km/h (0 Bft) NW 310 0 min
22.12.2017 11:40 9,1 C 9,3 C 7,9 C 99 % 98 % 1030,9 hPa 0,0 l/m 1,2 km/h (1 Bft) N-NW 330 0 min
22.12.2017 11:45 9,1 C 9,3 C 7,9 C 99 % 98 % 1030,9 hPa 0,0 l/m 3,6 km/h (1 Bft) W-NW 295 0 min
22.12.2017 11:50 9,1 C 9,3 C 7,9 C 99 % 98 % 1031,9 hPa 0,0 l/m 5,4 km/h (2 Bft) N-NO 20 0 min
22.12.2017 11:55 9,1 C 9,3 C 7,9 C 99 % 98 % 1031,9 hPa 0,0 l/m 7,9 km/h (2 Bft) NW 305 0 min
22.12.2017 12:00 9,1 C 9,3 C 8,0 C 99 % 98 % 1031,9 hPa 0,0 l/m 10,3 km/h (2 Bft) W-NW 300 0 min
22.12.2017 12:05 9,1 C 9,3 C 8,0 C 99 % 98 % 1031,9 hPa 0,0 l/m 9,7 km/h (2 Bft) W 275 0 min
22.12.2017 12:10 9,1 C 9,3 C 8,0 C 99 % 98 % 1031,9 hPa 0,0 l/m 6,7 km/h (2 Bft) W-NW 290 0 min
22.12.2017 12:15 9,2 C 9,3 C 8,0 C 99 % 98 % 1031,9 hPa 0,0 l/m 8,5 km/h (2 Bft) W-NW 285 0 min
22.12.2017 12:20 9,1 C 9,3 C 8,0 C 99 % 98 % 1030,9 hPa 0,0 l/m 7,3 km/h (2 Bft) NW 305 0 min
22.12.2017 12:25 9,1 C 9,3 C 8,0 C 99 % 98 % 1030,9 hPa 0,0 l/m 7,9 km/h (2 Bft) NW 315 0 min
22.12.2017 12:30 9,2 C 9,3 C 8,0 C 99 % 98 % 1030,9 hPa 0,0 l/m 12,1 km/h (2 Bft) W-NW 290 0 min
22.12.2017 12:35 9,2 C 9,4 C 8,0 C 99 % 98 % 1030,9 hPa 0,0 l/m 9,7 km/h (2 Bft) W-NW 290 0 min
22.12.2017 12:40 9,2 C 9,4 C 8,0 C 99 % 98 % 1030,9 hPa 0,0 l/m 10,3 km/h (2 Bft) W-NW 300 0 min
22.12.2017 12:45 9,2 C 9,4 C 8,0 C 99 % 98 % 1030,9 hPa 0,0 l/m 11,5 km/h (2 Bft) W-NW 285 0 min
22.12.2017 12:50 9,3 C 9,4 C 8,2 C 99 % 98 % 1030,9 hPa 0,0 l/m 9,7 km/h (2 Bft) NW 310 0 min
22.12.2017 12:55 9,4 C 9,6 C 8,2 C 99 % 98 % 1030,9 hPa 0,0 l/m 12,7 km/h (3 Bft) W-NW 290 0 min
22.12.2017 13:00 9,4 C 9,5 C 8,2 C 99 % 98 % 1030,9 hPa 0,0 l/m 9,1 km/h (2 Bft) W-NW 295 0 min
22.12.2017 13:05 9,3 C 9,5 C 8,2 C 99 % 98 % 1030,9 hPa 0,0 l/m 6,7 km/h (2 Bft) NW 310 0 min
22.12.2017 13:10 9,3 C 9,5 C 8,2 C 99 % 98 % 1030,9 hPa 0,0 l/m 3,6 km/h (1 Bft) N 0 0 min
22.12.2017 13:15 9,3 C 9,4 C 8,2 C 99 % 98 % 1030,9 hPa 0,0 l/m 9,1 km/h (2 Bft) N 5 0 min
22.12.2017 13:20 9,3 C 9,4 C 8,2 C 99 % 98 % 1030,9 hPa 0,0 l/m 5,4 km/h (2 Bft) NW 310 0 min
22.12.2017 13:25 9,2 C 9,4 C 8,2 C 99 % 98 % 1030,9 hPa 0,0 l/m 3,0 km/h (1 Bft) N-NW 340 0 min
22.12.2017 13:30 9,2 C 9,4 C 8,2 C 99 % 98 % 1030,9 hPa 0,0 l/m 3,0 km/h (1 Bft) N-NW 330 0 min
22.12.2017 13:35 9,2 C 9,4 C 8,2 C 99 % 98 % 1030,9 hPa 0,0 l/m 3,0 km/h (1 Bft) W-NW 295 0 min
22.12.2017 13:40 9,2 C 9,4 C 8,2 C 99 % 98 % 1030,9 hPa 0,0 l/m 3,6 km/h (1 Bft) N-NO 25 0 min
22.12.2017 13:45 9,2 C 9,4 C 8,2 C 99 % 98 % 1030,9 hPa 0,0 l/m 2,4 km/h (1 Bft) N 355 0 min
22.12.2017 13:50 9,2 C 9,4 C 8,0 C 99 % 98 % 1030,9 hPa 0,0 l/m 3,0 km/h (1 Bft) NW 315 0 min
22.12.2017 13:55 9,2 C 9,4 C 8,0 C 99 % 98 % 1030,9 hPa 0,0 l/m 4,2 km/h (1 Bft) N-NW 335 0 min
22.12.2017 14:00 9,1 C 9,3 C 8,0 C 99 % 98 % 1030,9 hPa 0,0 l/m 4,8 km/h (1 Bft) N 350 0 min
22.12.2017 14:05 9,1 C 9,3 C 8,0 C 99 % 98 % 1030,9 hPa 0,0 l/m 5,4 km/h (2 Bft) N 0 0 min
22.12.2017 14:10 9,1 C 9,3 C 8,0 C 99 % 98 % 1030,9 hPa 0,0 l/m 3,0 km/h (1 Bft) N-NO 20 0 min
22.12.2017 14:15 9,1 C 9,3 C 8,0 C 99 % 98 % 1030,9 hPa 0,0 l/m 3,0 km/h (1 Bft) N 355 0 min
22.12.2017 14:20 9,1 C 9,3 C 8,0 C 99 % 98 % 1030,9 hPa 0,0 l/m 2,4 km/h (1 Bft) NW 320 0 min
22.12.2017 14:25 9,1 C 9,3 C 8,0 C 99 % 98 % 1030,9 hPa 0,0 l/m 4,8 km/h (1 Bft) N 355 0 min
22.12.2017 14:30 9,1 C 9,3 C 8,0 C 99 % 98 % 1030,9 hPa 0,0 l/m 2,4 km/h (1 Bft) O-SO 115 0 min
22.12.2017 14:35 9,2 C 9,3 C 8,0 C 99 % 98 % 1031,9 hPa 0,0 l/m 1,2 km/h (1 Bft) O 90 0 min
22.12.2017 14:40 9,2 C 9,3 C 8,0 C 99 % 98 % 1031,9 hPa 0,0 l/m 1,2 km/h (1 Bft) N 10 0 min
22.12.2017 14:45 9,2 C 9,3 C 8,0 C 99 % 98 % 1031,9 hPa 0,0 l/m 0,0 km/h (0 Bft) O-SO 105 0 min
22.12.2017 14:50 9,1 C 9,3 C 8,0 C 99 % 98 % 1031,9 hPa 0,0 l/m 1,2 km/h (1 Bft) N-NO 25 0 min
22.12.2017 14:55 9,1 C 9,3 C 8,0 C 99 % 98 % 1031,9 hPa 0,0 l/m 2,4 km/h (1 Bft) SO 135 0 min
22.12.2017 15:00 9,1 C 9,3 C 8,0 C 99 % 98 % 1031,9 hPa 0,0 l/m 1,2 km/h (1 Bft) SO 135 0 min
22.12.2017 15:05 9,1 C 9,3 C 8,0 C 99 % 98 % 1031,9 hPa 0,0 l/m 3,0 km/h (1 Bft) O-SO 110 0 min
22.12.2017 15:10 9,1 C 9,3 C 8,0 C 99 % 98 % 1031,9 hPa 0,0 l/m 2,4 km/h (1 Bft) SO 135 0 min
22.12.2017 15:15 9,1 C 9,3 C 8,0 C 99 % 98 % 1031,9 hPa 0,0 l/m 2,4 km/h (1 Bft) O 100 0 min
22.12.2017 15:20 9,1 C 9,3 C 8,0 C 99 % 98 % 1031,9 hPa 0,0 l/m 1,8 km/h (1 Bft) SO 140 0 min
22.12.2017 15:25 9,1 C 9,3 C 8,0 C 99 % 98 % 1031,9 hPa 0,0 l/m 0,6 km/h (0 Bft) N-NO 30 0 min
22.12.2017 15:30 9,2 C 9,3 C 8,0 C 99 % 98 % 1031,9 hPa 0,0 l/m 0,0 km/h (0 Bft) S-SW 210 0 min
22.12.2017 15:35 9,2 C 9,3 C 8,0 C 99 % 98 % 1030,9 hPa 0,0 l/m 1,2 km/h (1 Bft) W-NW 285 0 min
22.12.2017 15:40 9,1 C 9,3 C 8,0 C 99 % 98 % 1030,9 hPa 0,0 l/m 0,6 km/h (0 Bft) W-SW 250 0 min
22.12.2017 15:45 9,1 C 9,3 C 8,0 C 99 % 98 % 1030,9 hPa 0,0 l/m 0,0 km/h (0 Bft) NW 315 0 min
22.12.2017 15:50 9,1 C 9,3 C 8,0 C 99 % 98 % 1030,9 hPa 0,0 l/m 0,0 km/h (0 Bft) W-NW 285 0 min
22.12.2017 15:55 9,0 C 9,1 C 8,0 C 99 % 98 % 1030,9 hPa 0,0 l/m 0,0 km/h (0 Bft) N-NW 335 0 min
22.12.2017 16:00 9,0 C 9,1 C 8,0 C 99 % 98 % 1030,9 hPa 0,0 l/m 0,6 km/h (0 Bft) NW 305 0 min
22.12.2017 16:05 9,0 C 9,1 C 8,0 C 99 % 98 % 1031,9 hPa 0,0 l/m 2,4 km/h (1 Bft) NW 320 0 min
22.12.2017 16:10 9,0 C 9,1 C 7,9 C 99 % 98 % 1031,9 hPa 0,0 l/m 3,0 km/h (1 Bft) NW 325 0 min
22.12.2017 16:15 9,0 C 9,1 C 7,9 C 99 % 98 % 1031,9 hPa 0,0 l/m 3,6 km/h (1 Bft) W-NW 300 0 min
22.12.2017 16:20 9,0 C 9,1 C 7,9 C 99 % 98 % 1031,9 hPa 0,0 l/m 1,8 km/h (1 Bft) N-NW 340 0 min
22.12.2017 16:25 9,0 C 9,0 C 7,9 C 99 % 97 % 1031,9 hPa 0,0 l/m 2,4 km/h (1 Bft) NW 305 0 min
22.12.2017 16:30 8,9 C 9,1 C 7,9 C 99 % 98 % 1031,9 hPa 0,0 l/m 1,8 km/h (1 Bft) NW 320 0 min
22.12.2017 16:35 8,9 C 9,0 C 7,9 C 99 % 97 % 1031,9 hPa 0,0 l/m 1,8 km/h (1 Bft) N 5 0 min
22.12.2017 16:40 8,9 C 9,0 C 7,9 C 99 % 97 % 1031,9 hPa 0,0 l/m 0,0 km/h (0 Bft) N-NW 340 0 min
22.12.2017 16:45 8,9 C 9,0 C 7,9 C 99 % 97 % 1031,9 hPa 0,0 l/m 0,6 km/h (0 Bft) N-NW 335 0 min
22.12.2017 16:50 8,9 C 9,0 C 7,9 C 99 % 97 % 1031,9 hPa 0,0 l/m 1,2 km/h (1 Bft) NW 325 0 min
22.12.2017 16:55 8,8 C 9,0 C 7,9 C 99 % 97 % 1031,9 hPa 0,0 l/m 0,0 km/h (0 Bft) N 355 0 min
22.12.2017 17:00 8,9 C 8,9 C 7,9 C 99 % 97 % 1031,9 hPa 0,0 l/m 2,4 km/h (1 Bft) N 10 0 min
22.12.2017 17:05 8,9 C 9,0 C 7,9 C 99 % 97 % 1031,9 hPa 0,0 l/m 0,6 km/h (0 Bft) N-NW 345 0 min
22.12.2017 17:10 8,9 C 9,0 C 7,9 C 99 % 97 % 1031,9 hPa 0,0 l/m 1,8 km/h (1 Bft) W-NW 295 0 min
22.12.2017 17:15 8,8 C 9,0 C 7,9 C 99 % 97 % 1031,9 hPa 0,0 l/m 0,6 km/h (0 Bft) NW 305 0 min
22.12.2017 17:20 8,8 C 9,0 C 7,9 C 99 % 97 % 1032,9 hPa 0,0 l/m 0,6 km/h (0 Bft) N 5 0 min
22.12.2017 17:25 8,8 C 8,9 C 7,7 C 99 % 97 % 1032,9 hPa 0,0 l/m 0,0 km/h (0 Bft) N 350 0 min
22.12.2017 17:30 8,9 C 8,9 C 7,7 C 99 % 97 % 1032,9 hPa 0,0 l/m 1,2 km/h (1 Bft) N 5 0 min
22.12.2017 17:35 8,9 C 8,9 C 7,7 C 99 % 97 % 1031,9 hPa 0,0 l/m 1,2 km/h (1 Bft) N 0 0 min
22.12.2017 17:40 8,8 C 8,9 C 7,7 C 99 % 97 % 1031,9 hPa 0,0 l/m 1,2 km/h (1 Bft) W-NW 295 0 min
22.12.2017 17:45 8,8 C 8,9 C 7,7 C 99 % 97 % 1031,9 hPa 0,0 l/m 0,6 km/h (0 Bft) NW 310 0 min
22.12.2017 17:50 8,8 C 8,9 C 7,7 C 99 % 97 % 1032,9 hPa 0,0 l/m 0,0 km/h (0 Bft) N-NO 25 0 min
22.12.2017 17:55 8,8 C 8,9 C 7,7 C 99 % 98 % 1032,9 hPa 0,0 l/m 0,0 km/h (0 Bft) N-NO 20 0 min
22.12.2017 18:00 8,8 C 8,9 C 7,7 C 99 % 97 % 1032,9 hPa 0,0 l/m 1,2 km/h (1 Bft) N 10 0 min
22.12.2017 18:05 8,8 C 8,9 C 7,7 C 99 % 97 % 1031,9 hPa 0,0 l/m 1,2 km/h (1 Bft) NW 310 0 min
22.12.2017 18:10 8,8 C 8,9 C 7,7 C 99 % 97 % 1031,9 hPa 0,0 l/m 0,0 km/h (0 Bft) NW 310 0 min
22.12.2017 18:15 8,7 C 8,9 C 7,7 C 99 % 97 % 1031,9 hPa 0,0 l/m 0,6 km/h (0 Bft) W-NW 295 0 min
22.12.2017 18:20 8,7 C 8,9 C 7,7 C 99 % 97 % 1032,9 hPa 0,3 l/m 0,6 km/h (0 Bft) W-SW 255 0 min
22.12.2017 18:25 8,7 C 8,8 C 7,5 C 99 % 98 % 1032,9 hPa 0,0 l/m 3,0 km/h (1 Bft) W-NW 285 0 min
22.12.2017 18:30 8,6 C 8,8 C 7,5 C 99 % 98 % 1032,9 hPa 0,0 l/m 3,0 km/h (1 Bft) W-NW 290 0 min
22.12.2017 18:35 8,6 C 8,7 C 7,5 C 99 % 97 % 1032,9 hPa 0,0 l/m 1,2 km/h (1 Bft) NW 305 0 min
22.12.2017 18:40 8,6 C 8,7 C 7,5 C 99 % 97 % 1032,9 hPa 0,0 l/m 2,4 km/h (1 Bft) NW 310 0 min
22.12.2017 18:45 8,6 C 8,8 C 7,5 C 99 % 97 % 1032,9 hPa 0,0 l/m 1,8 km/h (1 Bft) NW 320 0 min
22.12.2017 18:50 8,6 C 8,8 C 7,5 C 99 % 97 % 1032,9 hPa 0,0 l/m 0,0 km/h (0 Bft) NW 310 0 min
22.12.2017 18:55 8,5 C 8,7 C 7,5 C 99 % 97 % 1032,9 hPa 0,0 l/m 0,0 km/h (0 Bft) NW 320 0 min
22.12.2017 19:00 8,4 C 8,7 C 7,5 C 99 % 98 % 1032,9 hPa 0,0 l/m 0,0 km/h (0 Bft) NW 315 0 min
22.12.2017 19:05 8,4 C 8,6 C 7,5 C 99 % 97 % 1032,9 hPa 0,0 l/m 0,0 km/h (0 Bft) NW 320 0 min
22.12.2017 19:10 8,4 C 8,5 C 7,5 C 99 % 97 % 1032,9 hPa 0,0 l/m 0,0 km/h (0 Bft) W-SW 245 0 min
22.12.2017 19:15 8,3 C 8,4 C 7,5 C 99 % 97 % 1032,9 hPa 0,0 l/m 0,0 km/h (0 Bft) W 275 0 min
22.12.2017 19:20 8,3 C 8,4 C 7,5 C 99 % 98 % 1032,9 hPa 0,0 l/m 0,0 km/h (0 Bft) W-NW 290 0 min
22.12.2017 19:25 8,3 C 8,4 C 7,5 C 99 % 98 % 1032,9 hPa 0,0 l/m 0,0 km/h (0 Bft) NW 305 0 min
22.12.2017 19:30 8,4 C 8,4 C 7,5 C 99 % 98 % 1032,9 hPa 0,0 l/m 0,0 km/h (0 Bft) N-NO 20 0 min
22.12.2017 19:35 8,5 C 8,4 C 7,5 C 99 % 98 % 1032,9 hPa 0,0 l/m 0,0 km/h (0 Bft) N-NO 25 0 min
22.12.2017 19:40 8,5 C 8,5 C 7,5 C 99 % 98 % 1032,9 hPa 0,0 l/m 0,0 km/h (0 Bft) W-NW 300 0 min
22.12.2017 19:45 8,5 C 8,5 C 7,5 C 99 % 98 % 1032,9 hPa 0,0 l/m 0,0 km/h (0 Bft) N-NW 345 0 min
22.12.2017 19:50 8,5 C 8,4 C 7,5 C 99 % 98 % 1033,9 hPa 0,0 l/m 0,0 km/h (0 Bft) NW 315 0 min
22.12.2017 19:55 8,5 C 8,5 C 7,5 C 99 % 98 % 1033,9 hPa 0,0 l/m 0,0 km/h (0 Bft) W 260 0 min
22.12.2017 20:00 8,5 C 8,4 C 7,5 C 99 % 98 % 1033,9 hPa 0,0 l/m 0,0 km/h (0 Bft) N 10 0 min
22.12.2017 20:05 8,5 C 8,5 C 7,5 C 99 % 98 % 1032,9 hPa 0,0 l/m 0,0 km/h (0 Bft) NW 305 0 min
22.12.2017 20:10 8,5 C 8,5 C 7,5 C 99 % 98 % 1032,9 hPa 0,0 l/m 0,0 km/h (0 Bft) N-NW 330 0 min
22.12.2017 20:15 8,5 C 8,5 C 7,5 C 99 % 98 % 1032,9 hPa 0,0 l/m 1,2 km/h (1 Bft) N-NO 15 0 min
22.12.2017 20:20 8,6 C 8,5 C 7,5 C 99 % 98 % 1032,9 hPa 0,0 l/m 1,8 km/h (1 Bft) N-NO 15 0 min
22.12.2017 20:25 8,6 C 8,6 C 7,5 C 99 % 98 % 1032,9 hPa 0,0 l/m 1,8 km/h (1 Bft) N-NO 30 0 min
22.12.2017 20:30 8,7 C 8,6 C 7,5 C 99 % 98 % 1032,9 hPa 0,0 l/m 2,4 km/h (1 Bft) N-NO 20 0 min
22.12.2017 20:35 8,7 C 8,7 C 7,5 C 99 % 98 % 1032,9 hPa 0,0 l/m 1,2 km/h (1 Bft) W-NW 300 0 min
22.12.2017 20:40 8,6 C 8,6 C 7,5 C 99 % 98 % 1032,9 hPa 0,0 l/m 1,2 km/h (1 Bft) NW 320 0 min
22.12.2017 20:45 8,5 C 8,5 C 7,5 C 99 % 98 % 1032,9 hPa 0,0 l/m 0,0 km/h (0 Bft) N-NW 335 0 min
22.12.2017 20:50 8,5 C 8,6 C 7,5 C 99 % 98 % 1033,9 hPa 0,0 l/m 1,8 km/h (1 Bft) NW 315 0 min
22.12.2017 20:55 8,5 C 8,6 C 7,5 C 99 % 98 % 1033,9 hPa 0,0 l/m 0,0 km/h (0 Bft) W 275 0 min
22.12.2017 21:00 8,6 C 8,6 C 7,5 C 99 % 98 % 1033,9 hPa 0,0 l/m 3,0 km/h (1 Bft) O-NO 70 0 min
22.12.2017 21:05 8,5 C 8,6 C 7,5 C 99 % 98 % 1033,9 hPa 0,0 l/m 0,6 km/h (0 Bft) W-NW 290 0 min
22.12.2017 21:10 8,5 C 8,5 C 7,5 C 99 % 98 % 1033,9 hPa 0,0 l/m 0,0 km/h (0 Bft) NW 305 0 min
22.12.2017 21:15 8,4 C 8,5 C 7,5 C 99 % 98 % 1033,9 hPa 0,0 l/m 0,0 km/h (0 Bft) NW 320 0 min
22.12.2017 21:20 8,5 C 8,5 C 7,5 C 99 % 98 % 1033,9 hPa 0,0 l/m 1,2 km/h (1 Bft) SW 230 0 min
22.12.2017 21:25 8,4 C 8,5 C 7,5 C 99 % 98 % 1033,9 hPa 0,0 l/m 1,2 km/h (1 Bft) W-NW 285 0 min
22.12.2017 21:30 8,5 C 8,5 C 7,5 C 99 % 98 % 1033,9 hPa 0,0 l/m 3,0 km/h (1 Bft) NW 305 0 min
22.12.2017 21:35 8,5 C 8,5 C 7,5 C 99 % 98 % 1033,9 hPa 0,0 l/m 3,0 km/h (1 Bft) W-NW 295 0 min
22.12.2017 21:40 8,5 C 8,5 C 7,5 C 99 % 98 % 1033,9 hPa 0,0 l/m 1,2 km/h (1 Bft) NW 315 0 min
22.12.2017 21:45 8,5 C 8,5 C 7,5 C 99 % 98 % 1033,9 hPa 0,0 l/m 2,4 km/h (1 Bft) W-NW 285 0 min
22.12.2017 21:50 8,5 C 8,5 C 7,5 C 99 % 98 % 1032,9 hPa 0,0 l/m 2,4 km/h (1 Bft) W-NW 300 0 min
22.12.2017 21:55 8,5 C 8,5 C 7,5 C 99 % 98 % 1032,9 hPa 0,0 l/m 2,4 km/h (1 Bft) SW 235 0 min
22.12.2017 22:00 8,4 C 8,5 C 7,5 C 99 % 98 % 1032,9 hPa 0,0 l/m 2,4 km/h (1 Bft) W 270 0 min
22.12.2017 22:05 8,4 C 8,5 C 7,5 C 99 % 98 % 1032,9 hPa 0,0 l/m 1,8 km/h (1 Bft) W-NW 300 0 min
22.12.2017 22:10 8,4 C 8,4 C 7,5 C 99 % 98 % 1032,9 hPa 0,0 l/m 2,4 km/h (1 Bft) N-NW 340 0 min
22.12.2017 22:15 8,4 C 8,4 C 7,5 C 99 % 98 % 1032,9 hPa 0,0 l/m 1,8 km/h (1 Bft) W 260 0 min
22.12.2017 22:20 8,4 C 8,4 C 7,5 C 99 % 98 % 1033,9 hPa 0,0 l/m 1,2 km/h (1 Bft) SW 235 0 min
22.12.2017 22:25 8,4 C 8,4 C 7,5 C 99 % 98 % 1033,9 hPa 0,0 l/m 1,2 km/h (1 Bft) W 270 0 min
22.12.2017 22:30 8,4 C 8,4 C 7,5 C 99 % 98 % 1033,9 hPa 0,0 l/m 2,4 km/h (1 Bft) SW 235 0 min
22.12.2017 22:35 8,4 C 8,4 C 7,5 C 99 % 98 % 1033,9 hPa 0,0 l/m 1,8 km/h (1 Bft) SW 235 0 min
22.12.2017 22:40 8,4 C 8,4 C 7,5 C 99 % 98 % 1033,9 hPa 0,0 l/m 1,2 km/h (1 Bft) NW 305 0 min
22.12.2017 22:45 8,4 C 8,4 C 7,5 C 99 % 98 % 1033,9 hPa 0,0 l/m 1,2 km/h (1 Bft) W-NW 300 0 min
22.12.2017 22:50 8,4 C 8,4 C 7,5 C 99 % 98 % 1032,9 hPa 0,0 l/m 0,0 km/h (0 Bft) W-NW 285 0 min
22.12.2017 22:55 8,4 C 8,4 C 7,5 C 99 % 98 % 1032,9 hPa 0,0 l/m 1,2 km/h (1 Bft) SW 235 0 min
22.12.2017 23:00 8,4 C 8,4 C 7,5 C 99 % 98 % 1032,9 hPa 0,0 l/m 3,6 km/h (1 Bft) SW 235 0 min
22.12.2017 23:05 8,4 C 8,4 C 7,5 C 99 % 98 % 1033,9 hPa 0,0 l/m 3,6 km/h (1 Bft) W-SW 240 0 min
22.12.2017 23:10 8,4 C 8,4 C 7,5 C 99 % 98 % 1033,9 hPa 0,0 l/m 3,6 km/h (1 Bft) W-SW 245 0 min
22.12.2017 23:15 8,4 C 8,4 C 7,5 C 99 % 98 % 1033,9 hPa 0,0 l/m 3,6 km/h (1 Bft) NW 310 0 min
22.12.2017 23:20 8,3 C 8,4 C 7,5 C 99 % 98 % 1032,9 hPa 0,0 l/m 1,2 km/h (1 Bft) NW 310 0 min
22.12.2017 23:25 8,4 C 8,4 C 7,5 C 99 % 98 % 1032,9 hPa 0,0 l/m 2,4 km/h (1 Bft) W-NW 295 0 min
22.12.2017 23:30 8,5 C 8,4 C 7,5 C 99 % 98 % 1032,9 hPa 0,0 l/m 3,6 km/h (1 Bft) NW 305 0 min
22.12.2017 23:35 8,5 C 8,4 C 7,5 C 99 % 98 % 1033,9 hPa 0,0 l/m 4,8 km/h (1 Bft) W-NW 285 0 min
22.12.2017 23:40 8,6 C 8,5 C 7,5 C 99 % 98 % 1033,9 hPa 0,0 l/m 7,3 km/h (2 Bft) NW 325 0 min
22.12.2017 23:45 8,6 C 8,5 C 7,5 C 99 % 98 % 1033,9 hPa 0,0 l/m 5,4 km/h (2 Bft) W-NW 285 0 min
22.12.2017 23:50 8,6 C 8,5 C 7,5 C 99 % 98 % 1033,9 hPa 0,0 l/m 6,7 km/h (2 Bft) NW 310 0 min
22.12.2017 23:55 8,6 C 8,6 C 7,5 C 99 % 98 % 1033,9 hPa 0,0 l/m 7,9 km/h (2 Bft) SW 230 0 min
_ Min-Zeit 19:15 19:15 00:00 00:00 16:25 05:35 - 08:10 - - -
Minimum _ 8,3 C 8,4 C 7,2 C 99 % 97 % 1028,9 hPa - 0,0 km/h (0 Bft) - - -
_ Max-Zeit 12:55 12:55 12:50 00:00 00:00 19:50 01:25 12:55 - - 00:00
Maximum _ 9,4 C 9,6 C 8,2 C 99 % 98 % 1033,9 hPa 0,3 l/m 12,7 km/h
W-NW (3 Bft)
- - 0 min
Durchschnitt _ 8,7 C 8,8 C 7,6 C 99 % 98 % 1031,4 hPa #4,7 l/m 3,0 km/h (1 Bft) S-SO - #0 min.